Flag for Switzerland Weather past 2 weeks in Muttenz, Basel-Land, Switzerland

Now
37 °F

Clear.


Feels Like: 35 °F
Forecast: 30 / 39 °F
Wind: 3 mph from North

Location: Bale-Mulhouse

Current Time: Dec 26, 2014 at 2:41:42 AM

Latest Report: Dec 26, 2014 at 2:00 AM


Visibility: N/A

Pressure: 30.42 "Hg

Humidity: 93%

Dew point: 36 °F

Location of MuttenzLocation

Historic Weather in Muttenz — Graph

°F

Muttenz temperature yesterday

Maximum temperature yesterday: 48 °F (at 12:00 AM)
Minimum temperature yesterday: 39 °F (at 8:00 PM)
Average temperature yesterday: 43 °F

Past Weeks' High & Low Weather Summary

 TemperatureHumidityPressure
High55 °F (Dec 18, 4:00 PM)100% (Dec 11, 1:00 AM)30.57 "Hg (Dec 11, 1:00 AM)
Low30 °F (Dec 23, 5:00 AM)54% (Dec 23, 2:00 PM)29.80 "Hg (Dec 12, 6:00 PM)
Average44 °F84%30.17 "Hg
* Reported Dec 11 1:00 AM — Dec 26 1:30 AM, Muttenz, Weather by CustomWeather, © 2014

Note: Actual official high and low records may vary slightly from our data, if they occured in-between our weather recording intervals... More about our weather records

Advertising

Muttenz weather history for previous 24 hours

 ConditionsComfort  
Time TempWeatherWind HumidityBarometerVisibility
1:30 AM
Dec 26
37 °FMostly cloudy.2 mph93%30.42 "HgN/A
1:00 AM37 °FClear.9 mph93%30.42 "HgN/A
12:30 AM37 °FOvercast.6 mph87%30.42 "HgN/A
12:00 AM37 °FPassing clouds.10 mph93%30.42 "HgN/A
11:30 PM
Dec 25
39 °FSprinkles. Partly cloudy.5 mph87%30.42 "HgN/A
11:00 PM39 °FPassing clouds.6 mph87%30.42 "HgN/A
10:30 PM39 °FClear.12 mph87%30.42 "Hg10 mi
10:00 PM39 °FClear.9 mph87%30.42 "Hg10 mi
9:30 PM39 °FClear.12 mph87%30.42 "Hg10 mi
9:00 PM39 °FClear.10 mph87%30.42 "Hg10 mi
8:30 PM39 °FPassing clouds.10 mph87%30.39 "HgN/A
8:00 PM39 °FPassing clouds.12 mph87%30.39 "HgN/A
7:30 PM41 °FLight rain. Partly cloudy.12 mph81%30.39 "Hg4 mi
7:09 PM41 °FLight rain. Partly cloudy.7 mph81%30.39 "HgN/A
6:30 PM41 °FPassing clouds.5 mph81%30.39 "HgN/A
6:00 PM41 °FPassing clouds.6 mph81%30.39 "HgN/A
5:30 PM43 °FPassing clouds.9 mph76%30.39 "HgN/A
5:00 PM41 °FPassing clouds.9 mph81%30.36 "HgN/A
4:30 PM43 °FPartly sunny.9 mph76%30.36 "HgN/A
4:00 PM43 °FBroken clouds.10 mph76%30.36 "HgN/A
3:30 PM43 °FPartly sunny.12 mph76%30.36 "HgN/A
3:00 PM43 °FPartly sunny.13 mph76%30.36 "HgN/A
2:30 PM43 °FPartly sunny.10 mph76%30.36 "HgN/A
2:00 PM45 °FPartly sunny.12 mph71%30.36 "HgN/A
1:30 PM45 °FBroken clouds.13 mph71%30.36 "HgN/A
1:00 PM43 °FBroken clouds.12 mph81%30.36 "HgN/A
12:30 PM43 °FBroken clouds.12 mph81%30.36 "HgN/A
12:00 PM43 °FPartly sunny.14 mph81%30.36 "HgN/A
11:30 AM43 °FPartly sunny.12 mph81%30.36 "HgN/A
11:00 AM43 °FPartly sunny.12 mph81%30.36 "HgN/A
10:30 AM43 °FLight rain. Partly sunny.10 mph81%30.36 "HgN/A
10:00 AM43 °FScattered showers. Partly sunny.12 mph87%30.33 "HgN/A
9:30 AM43 °FScattered showers. Overcast.12 mph87%30.33 "HgN/A
9:00 AM45 °FScattered showers. Overcast.9 mph87%30.33 "HgN/A
8:30 AM45 °FLight rain. Partly sunny.9 mph87%30.30 "HgN/A
8:00 AM45 °FLight rain. Passing clouds.10 mph87%30.30 "HgN/A
7:30 AM46 °FPassing clouds.9 mph87%30.27 "HgN/A
7:00 AM46 °FMostly cloudy.6 mph87%30.27 "HgN/A
6:30 AM46 °FPartly cloudy.7 mph87%30.27 "HgN/A
6:00 AM46 °FPassing clouds.8 mph87%30.27 "HgN/A
5:30 AM46 °FPassing clouds.9 mph87%30.27 "HgN/A
5:00 AM46 °FPassing clouds.9 mph87%30.27 "HgN/A
4:30 AM46 °FPassing clouds.7 mph87%30.27 "HgN/A
4:00 AM46 °FMostly cloudy.3 mph82%30.27 "HgN/A
3:30 AM46 °FMostly cloudy.2 mph82%30.27 "HgN/A
3:00 AM46 °FMostly cloudy.3 mph82%30.27 "HgN/A
2:30 AM46 °FMostly cloudy.1 mph82%30.27 "HgN/A
2:00 AM46 °FMostly cloudy.2 mph82%30.27 "HgN/A
Weather by CustomWeather, © 2014

See weather overviewHow to use our weather pages